Previsão horária em Ploskow

Hoje, 5 Março, Sexta-feira

Tempo Temperatura Precipitação Vento Pressão Humidade
00:00 -4°C° 0 mm 3 m/s 752 mmHg 87%
01:00 -3°C° 0 mm 2 m/s 752 mmHg 89%
02:00 -3°C° 0 mm 2 m/s 752 mmHg 89%
03:00 -3°C° 0 mm 2 m/s 752 mmHg 88%
04:00 -3°C° 0 mm 2 m/s 752 mmHg 88%
05:00 -3°C° 0 mm 2 m/s 753 mmHg 87%
06:00 -3°C° 0 mm 2 m/s 753 mmHg 85%
07:00 -3°C° 0 mm 2 m/s 754 mmHg 84%
08:00 -2°C° 0 mm 3 m/s 754 mmHg 75%
09:00 0°C° 0 mm 3 m/s 755 mmHg 66%
10:00 0°C° 0 mm 4 m/s 755 mmHg 57%
11:00 +1°C° 0.1 mm 4 m/s 755 mmHg 51%
12:00 +1°C° 0.1 mm 4 m/s 755 mmHg 45%
13:00 +3°C° 0.1 mm 4 m/s 756 mmHg 40%
14:00 +1°C° 0.1 mm 5 m/s 756 mmHg 43%
15:00 +1°C° 0.1 mm 5 m/s 756 mmHg 46%
16:00 +1°C° 0.1 mm 5 m/s 757 mmHg 49%
17:00 -1°C° 0 mm 4 m/s 757 mmHg 57%
18:00 -1°C° 0 mm 3 m/s 757 mmHg 64%
19:00 -2°C° 0 mm 2 m/s 758 mmHg 72%
20:00 -2°C° 0 mm 2 m/s 758 mmHg 73%
21:00 -2°C° 0 mm 2 m/s 759 mmHg 75%
22:00 -3°C° 0 mm 2 m/s 759 mmHg 77%
23:00 -3°C° 0 mm 2 m/s 759 mmHg 76%

Amanhã, 6 Março, Sábado

Tempo Temperatura Precipitação Vento Pressão Humidade
00:00 -3°C° 0 mm 2 m/s 760 mmHg 76%
01:00 -3°C° 0 mm 2 m/s 760 mmHg 76%
02:00 -3°C° 0 mm 2 m/s 760 mmHg 74%
03:00 -3°C° 0 mm 2 m/s 760 mmHg 73%
04:00 -3°C° 0 mm 2 m/s 760 mmHg 72%
05:00 -3°C° 0 mm 2 m/s 760 mmHg 73%
06:00 -3°C° 0 mm 2 m/s 760 mmHg 73%
07:00 -2°C° 0 mm 3 m/s 760 mmHg 74%
08:00 -1°C° 0 mm 3 m/s 760 mmHg 67%
09:00 0°C° 0 mm 3 m/s 760 mmHg 60%
10:00 0°C° 0 mm 4 m/s 760 mmHg 53%
11:00 +1°C° 0 mm 4 m/s 760 mmHg 49%
12:00 +2°C° 0 mm 5 m/s 760 mmHg 44%
13:00 +3°C° 0 mm 5 m/s 760 mmHg 40%
14:00 +2°C° 0 mm 5 m/s 759 mmHg 45%
15:00 +2°C° 0 mm 5 m/s 759 mmHg 50%
16:00 +2°C° 0 mm 6 m/s 758 mmHg 55%
17:00 +1°C° 0 mm 5 m/s 758 mmHg 67%
18:00 0°C° 0 mm 5 m/s 757 mmHg 79%
19:00 -1°C° 0 mm 5 m/s 757 mmHg 91%
20:00 -1°C° 0 mm 5 m/s 757 mmHg 88%
21:00 -2°C° 0 mm 6 m/s 757 mmHg 85%
22:00 -2°C° 0 mm 6 m/s 757 mmHg 82%
23:00 -2°C° 0 mm 6 m/s 756 mmHg 81%

Depois de amanhã, 7 Março, Domingo

Tempo Temperatura Precipitação Vento Pressão Humidade
00:00 -2°C° 0 mm 6 m/s 756 mmHg 81%
01:00 -2°C° 0 mm 7 m/s 756 mmHg 80%
02:00 -2°C° 0 mm 7 m/s 755 mmHg 82%
03:00 -3°C° 0 mm 7 m/s 755 mmHg 85%
04:00 -3°C° 0 mm 7 m/s 754 mmHg 88%
05:00 -3°C° 0.1 mm 7 m/s 754 mmHg 88%
06:00 -3°C° 0.1 mm 7 m/s 754 mmHg 89%
07:00 -3°C° 0.1 mm 7 m/s 754 mmHg 89%
08:00 -2°C° 0 mm 7 m/s 753 mmHg 87%
09:00 -2°C° 0 mm 7 m/s 753 mmHg 84%
10:00 -2°C° 0 mm 7 m/s 753 mmHg 82%
11:00 -1°C° 0 mm 7 m/s 753 mmHg 80%
12:00 -1°C° 0 mm 7 m/s 753 mmHg 78%
13:00 -1°C° 0 mm 7 m/s 753 mmHg 76%
14:00 -1°C° 0 mm 7 m/s 752 mmHg 80%
15:00 -1°C° 0 mm 6 m/s 751 mmHg 83%
16:00 -1°C° 0 mm 6 m/s 751 mmHg 86%
17:00 -2°C° 0.2 mm 6 m/s 751 mmHg 89%
18:00 -2°C° 0.2 mm 6 m/s 751 mmHg 92%
19:00 -2°C° 0.2 mm 6 m/s 750 mmHg 95%
20:00 -2°C° 0.6 mm 6 m/s 750 mmHg 96%
21:00 -1°C° 0.6 mm 5 m/s 750 mmHg 96%
22:00 -1°C° 0.6 mm 5 m/s 750 mmHg 97%
23:00 -2°C° 0.4 mm 4 m/s 750 mmHg 96%

8 Março, Segunda-feira

Tempo Temperatura Precipitação Vento Pressão Humidade
00:00 -2°C° 0.4 mm 3 m/s 750 mmHg 95%
01:00 -2°C° 0.4 mm 2 m/s 750 mmHg 94%
02:00 -3°C° 0 mm 2 m/s 750 mmHg 92%
03:00 -3°C° 0 mm 2 m/s 750 mmHg 90%
04:00 -4°C° 0 mm 2 m/s 750 mmHg 87%
05:00 -4°C° 0 mm 2 m/s 751 mmHg 85%
06:00 -4°C° 0 mm 2 m/s 751 mmHg 83%
07:00 -5°C° 0 mm 3 m/s 752 mmHg 81%
08:00 -2°C° 0 mm 3 m/s 752 mmHg 74%
09:00 -2°C° 0 mm 4 m/s 753 mmHg 67%
10:00 -1°C° 0 mm 4 m/s 753 mmHg 60%
11:00 -1°C° 0 mm 4 m/s 754 mmHg 60%
12:00 0°C° 0 mm 4 m/s 754 mmHg 59%
13:00 0°C° 0 mm 4 m/s 754 mmHg 58%
14:00 0°C° 0 mm 4 m/s 754 mmHg 60%
15:00 0°C° 0 mm 4 m/s 755 mmHg 61%
16:00 -1°C° 0 mm 4 m/s 755 mmHg 63%
17:00 -1°C° 0 mm 3 m/s 755 mmHg 69%
18:00 -2°C° 0 mm 3 m/s 755 mmHg 75%
19:00 -3°C° 0 mm 2 m/s 756 mmHg 81%
20:00 -4°C° 0 mm 2 m/s 756 mmHg 82%
21:00 -4°C° 0 mm 2 m/s 756 mmHg 82%
22:00 -4°C° 0 mm 2 m/s 757 mmHg 83%
23:00 -2°C° 0 mm 1 m/s 757 mmHg 82%

9 Março, Terça-feira

Tempo Temperatura Precipitação Vento Pressão Humidade
00:00 -2°C° 0 mm 1 m/s 757 mmHg 81%
01:00 -2°C° 0 mm 1 m/s 757 mmHg 80%
02:00 -2°C° 0 mm 1 m/s 757 mmHg 79%
03:00 -2°C° 0 mm 1 m/s 757 mmHg 79%
04:00 -3°C° 0 mm 0 m/s 756 mmHg 78%
05:00 -2°C° 0 mm 1 m/s 756 mmHg 77%
06:00 -2°C° 0 mm 1 m/s 757 mmHg 76%
07:00 -2°C° 0 mm 1 m/s 757 mmHg 74%
08:00 -1°C° 0 mm 1 m/s 757 mmHg 70%
09:00 -2°C° 0 mm 2 m/s 757 mmHg 65%
10:00 -2°C° 0 mm 2 m/s 757 mmHg 60%
11:00 -1°C° 0 mm 2 m/s 757 mmHg 57%
12:00 -1°C° 0 mm 2 m/s 757 mmHg 53%
13:00 +1°C° 0 mm 2 m/s 757 mmHg 50%
14:00 +1°C° 0 mm 2 m/s 756 mmHg 49%
15:00 +1°C° 0 mm 2 m/s 756 mmHg 48%
16:00 +1°C° 0 mm 2 m/s 756 mmHg 47%
17:00 -1°C° 0 mm 2 m/s 756 mmHg 52%
18:00 -2°C° 0 mm 2 m/s 756 mmHg 56%
19:00 -3°C° 0 mm 2 m/s 756 mmHg 61%
20:00 -3°C° 0 mm 2 m/s 756 mmHg 62%
21:00 -3°C° 0 mm 2 m/s 756 mmHg 63%
22:00 -3°C° 0 mm 2 m/s 756 mmHg 63%
23:00 -3°C° 0 mm 2 m/s 756 mmHg 63%

10 Março, Quarta-feira

Tempo Temperatura Precipitação Vento Pressão Humidade
00:00 -4°C° 0 mm 3 m/s 755 mmHg 63%
01:00 -4°C° 0 mm 3 m/s 755 mmHg 63%
02:00 -4°C° 0 mm 3 m/s 755 mmHg 64%
03:00 -3°C° 0 mm 2 m/s 755 mmHg 64%
04:00 -3°C° 0 mm 2 m/s 754 mmHg 65%
05:00 -4°C° 0 mm 3 m/s 754 mmHg 65%
06:00 -4°C° 0 mm 3 m/s 754 mmHg 66%
07:00 -4°C° 0 mm 3 m/s 754 mmHg 66%
08:00 -2°C° 0 mm 3 m/s 754 mmHg 64%
09:00 -2°C° 0 mm 4 m/s 754 mmHg 62%
10:00 0°C° 0 mm 4 m/s 753 mmHg 60%
11:00 0°C° 0 mm 4 m/s 753 mmHg 64%
12:00 +1°C° 0 mm 4 m/s 753 mmHg 67%
13:00 +3°C° 0 mm 4 m/s 753 mmHg 71%
14:00 +3°C° 0 mm 4 m/s 752 mmHg 75%
15:00 +3°C° 0 mm 4 m/s 751 mmHg 78%
16:00 +3°C° 0 mm 4 m/s 750 mmHg 81%
17:00 +1°C° 0 mm 4 m/s 750 mmHg 85%
18:00 0°C° 0 mm 4 m/s 749 mmHg 88%
19:00 0°C° 0 mm 4 m/s 749 mmHg 92%
20:00 0°C° 0 mm 4 m/s 748 mmHg 90%
21:00 0°C° 0 mm 5 m/s 748 mmHg 88%
22:00 0°C° 0 mm 5 m/s 747 mmHg 86%
23:00 0°C° 0 mm 5 m/s 747 mmHg 85%
Mostrar mais

Necessitamos do seu Consentimento

A Meteoprog e os seus Fornecedores de Serviços podem armazenar e aceder a dados pessoais como cookies, identificadores do dispositivo ou outras tecnologias semelhantes existentes no seu dispositivo e processar estes dados para personalizar conteúdos e anúncios, assim como funcionalidades nas redes sociais e análise de tráfego.

  • Armazenar e/ou aceder a informações no seu dispositivo

    Os cookies, identificadores do dispositivo ou outras informações podem ser armazenados ou acedidos no seu dispositivo, para os fins acima indicados.

  • Anúncios e conteúdos personalizados, medição de anúncios e conteúdos, dados sobre o público-alvo e desenvolvimento de produtos

    Os anúncios e os conteúdos podem ser personalizados com base num perfil. Podem ser adicionados dados adicionais para uma maior personalização dos anúncios e dos conteúdos. A eficácia dos anúncios e dos conteúdos pode ser medida. Podem ser obtidas informações sobre o público que visualizou os anúncios e os conteúdos. Estes dados podem ser usados para desenvolver ou melhorar sistemas, softwares ou a experiência do utilizador.

Ao clicar em "Eu concordo”, permitirá o uso de cookies, identificadores do dispositivo e web beacons mencionados ou outras tecnologias semelhantes. As configurações do navegador do seu dispositivo podem ser alteradas.

Para certos fins, podem ser invocados interesses legítimos ao invés de consentimento. Pode ler mais informação sobre este assunto na nossa Política de Privacidade e Cookies.